TimeCST,TemperatureF,Dew PointF,Humidity,Sea Level PressureIn,VisibilityMPH,Wind Direction,Wind SpeedMPH,Gust SpeedMPH,PrecipitationIn,Events,Conditions,WindDirDegrees,DateUTC
12:52 AM,37.0,28.9,73,30.13,10.0,ESE,15.0,-,N/A,,Mostly Cloudy,120,2012-12-09 06:52:00
1:04 AM,37.4,28.4,70,30.11,10.0,ESE,15.0,-,N/A,,Overcast,110,2012-12-09 07:04:00
1:52 AM,37.0,28.0,70,30.13,10.0,ESE,17.3,23.0,N/A,,Overcast,110,2012-12-09 07:52:00
2:52 AM,37.0,28.9,73,30.13,10.0,ESE,17.3,-,N/A,,Overcast,110,2012-12-09 08:52:00
3:52 AM,37.0,30.0,76,30.10,10.0,East,15.0,-,N/A,,Overcast,100,2012-12-09 09:52:00
4:52 AM,37.0,30.9,79,30.07,9.0,ESE,18.4,24.2,0.00,Snow,Light Snow,110,2012-12-09 10:52:00
5:52 AM,36.0,34.0,93,30.06,8.0,ESE,18.4,-,0.01,Snow,Light Snow,120,2012-12-09 11:52:00
6:52 AM,36.0,34.0,93,30.05,7.0,ESE,15.0,-,0.01,Rain,Light Rain,120,2012-12-09 12:52:00
7:06 AM,35.6,35.6,100,30.02,4.0,ESE,16.1,-,0.01,Rain,Light Rain,110,2012-12-09 13:06:00
7:52 AM,37.0,35.1,93,30.03,5.0,ESE,11.5,20.7,0.04,Rain,Light Rain,110,2012-12-09 13:52:00
8:52 AM,37.9,35.1,89,30.02,7.0,East,15.0,-,0.02,Rain,Light Rain,100,2012-12-09 14:52:00
9:52 AM,37.9,35.1,89,30.00,10.0,East,11.5,-,0.01,Rain,Light Rain,90,2012-12-09 15:52:00
10:52 AM,37.0,35.1,93,29.96,3.0,East,15.0,-,0.05,Rain,Rain,90,2012-12-09 16:52:00
10:59 AM,37.4,35.6,93,29.93,2.5,East,15.0,-,0.01,Rain,Rain,90,2012-12-09 16:59:00
11:12 AM,35.6,35.6,100,29.92,1.8,East,13.8,-,0.04,Rain,Rain,90,2012-12-09 17:12:00
11:48 AM,35.6,35.6,100,29.89,2.0,East,16.1,-,0.08,Rain,Light Rain,80,2012-12-09 17:48:00
11:52 AM,35.6,33.8,93,29.89,2.5,East,18.4,-,N/A,Rain,Light Rain,80,2012-12-09 17:52:00
12:52 PM,35.1,34.0,96,29.86,4.0,East,16.1,-,0.06,Rain,Light Rain,80,2012-12-09 18:52:00
1:19 PM,35.6,33.8,93,29.83,2.0,East,15.0,-,0.00,Rain,Light Rain,80,2012-12-09 19:19:00
1:52 PM,36.0,35.1,97,29.82,3.0,East,17.3,-,0.03,Rain,Light Rain,80,2012-12-09 19:52:00
2:25 PM,35.6,35.6,100,29.80,2.5,East,16.1,21.9,0.01,Rain,Light Rain,80,2012-12-09 20:25:00
2:52 PM,36.0,35.1,97,29.82,2.0,East,13.8,-,0.03,Rain,Light Rain,80,2012-12-09 20:52:00
3:04 PM,35.6,35.6,100,29.80,1.5,East,15.0,-,0.01,Rain,Light Rain,90,2012-12-09 21:04:00
3:13 PM,35.6,35.6,100,29.80,1.2,East,16.1,-,0.02,Rain,Rain,90,2012-12-09 21:13:00
3:52 PM,36.0,35.1,97,29.81,2.0,East,13.8,-,0.07,Rain,Light Rain,90,2012-12-09 21:52:00
4:52 PM,36.0,35.1,97,29.78,2.0,East,11.5,-,0.01,Rain,Light Rain,90,2012-12-09 22:52:00
5:04 PM,35.6,35.6,100,29.75,5.0,East,12.7,19.6,0.00,Rain,Light Rain,90,2012-12-09 23:04:00
5:52 PM,37.0,36.0,96,29.76,3.0,East,11.5,-,0.00,,Light Drizzle,100,2012-12-09 23:52:00
6:45 PM,37.4,37.4,100,29.72,3.0,East,9.2,-,0.01,,Light Drizzle,100,2012-12-10 00:45:00
6:52 PM,37.0,37.0,100,29.74,3.0,East,9.2,-,0.01,,Light Drizzle,100,2012-12-10 00:52:00
7:18 PM,37.4,37.4,100,29.71,2.5,East,8.1,-,0.00,,Light Drizzle,90,2012-12-10 01:18:00
7:52 PM,37.9,37.0,97,29.73,2.5,ENE,4.6,-,0.00,,Light Drizzle,60,2012-12-10 01:52:00
8:12 PM,37.4,37.4,100,29.70,1.2,ENE,4.6,-,0.00,,Light Drizzle,60,2012-12-10 02:12:00
8:24 PM,37.4,37.4,100,29.70,1.5,ENE,5.8,-,0.01,,Light Drizzle,70,2012-12-10 02:24:00
8:52 PM,37.9,37.9,100,29.72,1.5,NNE,4.6,-,0.01,,Light Drizzle,30,2012-12-10 02:52:00
9:47 PM,37.4,37.4,100,29.67,5.0,Calm,Calm,-,0.01,,Light Drizzle,0,2012-12-10 03:47:00
9:52 PM,37.9,37.9,100,29.69,5.0,Calm,Calm,-,0.01,,Light Drizzle,0,2012-12-10 03:52:00
10:36 PM,37.4,37.4,100,29.67,8.0,West,4.6,-,0.00,,Overcast,270,2012-12-10 04:36:00
10:52 PM,37.9,37.0,97,29.69,7.0,West,4.6,-,0.00,,Overcast,280,2012-12-10 04:52:00
11:17 PM,37.4,37.4,100,29.67,6.0,West,5.8,-,0.00,,Light Drizzle,270,2012-12-10 05:17:00
11:33 PM,37.4,37.4,100,29.68,4.0,West,8.1,-,0.00,,Light Drizzle,260,2012-12-10 05:33:00
11:52 PM,37.0,36.0,96,29.69,5.0,West,8.1,-,0.00,,Light Drizzle,280,2012-12-10 05:52:00